CW3077 Weather Reports


Display with metric or nautical units.
time (UTC)temp
F
wind
direction
speed
MPH
gust
MPH
rain 1hr
in
rain 24hr
in
rain mn
in
humidity
%
barometer
mb
20260831105016 79 203 4.0 9.0 0.00 0.00 0.00 84 1017.0
20260831104516 79 203 3.0 9.0 0.00 0.00 0.00 84 1016.9
20260831104016 79 180 3.0 8.0 0.00 0.00 0.00 84 1016.8
20260831103516 79 203 3.0 8.0 0.00 0.00 0.00 84 1016.7
20260831103016 79 225 3.0 9.0 0.00 0.00 0.00 84 1016.8
20260831102516 79 203 3.0 9.0 0.00 0.00 0.00 84 1016.9
20260831102016 79 225 3.0 8.0 0.00 0.00 0.00 84 1016.9
20260831101556 79 225 3.0 7.0 0.00 0.00 0.00 84 1017.1
20260831101016 79 203 2.0 7.0 0.00 0.00 0.00 83 1017.0
20260831100536 79 203 2.0 8.0 0.00 0.00 0.00 83 1017.0
20260831100016 79 203 2.0 7.0 0.00 0.00 0.00 83 1017.1
20260831095536 79 225 3.0 7.0 0.00 0.00 0.00 83 1017.1
20260831095016 79 203 3.0 9.0 0.00 0.00 0.00 83 1016.9
20260831094516 79 203 2.0 10.0 0.00 0.00 0.00 83 1016.9
20260831094036 79 225 2.0 7.0 0.00 0.00 0.00 83 1016.9
20260831093536 79 225 3.0 9.0 0.00 0.00 0.00 83 1016.9
20260831093015 79 203 3.0 7.0 0.00 0.00 0.00 82 1016.9
20260831092516 79 225 2.0 6.0 0.00 0.00 0.00 82 1016.9
20260831092016 79 225 2.0 6.0 0.00 0.00 0.00 82 1016.8
20260831091516 79 203 3.0 8.0 0.00 0.00 0.00 82 1016.8
20260831091017 79 180 2.0 7.0 0.00 0.00 0.00 81 1016.8
20260831090516 79 225 3.0 9.0 0.00 0.00 0.00 81 1016.8
20260831090016 79 203 1.0 7.0 0.00 0.00 0.00 80 1016.8
20260831085516 80 203 1.0 5.0 0.00 0.00 0.00 80 1016.8
20260831085016 80 203 1.0 5.0 0.00 0.00 0.00 80 1016.9
20260831084515 80 180 2.0 5.0 0.00 0.00 0.00 80 1016.9
20260831084036 80 180 2.0 7.0 0.00 0.00 0.00 80 1016.9
20260831083516 80 225 2.0 6.0 0.00 0.00 0.00 79 1017.0
20260831083015 80 203 3.0 10.0 0.00 0.00 0.00 79 1017.0
20260831082516 80 203 3.0 8.0 0.00 0.00 0.00 78 1017.0
20260831082015 80 180 2.0 5.0 0.00 0.00 0.00 77 1017.0
20260831081516 80 180 1.0 6.0 0.00 0.00 0.00 77 1017.0
20260831081016 80 203 2.0 8.0 0.00 0.00 0.00 77 1016.9
20260831080515 80 203 3.0 8.0 0.00 0.00 0.00 76 1016.9
20260831080016 81 203 3.0 9.0 0.00 0.00 0.00 76 1016.9
20260831075535 81 203 2.0 6.0 0.00 0.00 0.00 76 1016.9
20260831075016 81 180 2.0 6.0 0.00 0.00 0.00 76 1017.0
20260831074015 81 180 3.0 10.0 0.00 0.00 0.00 75 1016.9
20260831073536 81 203 3.0 9.0 0.00 0.00 0.00 75 1016.9
20260831073015 81 180 4.0 12.0 0.00 0.00 0.00 74 1017.0
20260831072515 81 180 4.0 11.0 0.00 0.00 0.00 74 1017.0
20260831072015 82 180 4.0 10.0 0.00 0.00 0.00 73 1017.1
20260831071515 82 203 3.0 8.0 0.00 0.00 0.00 73 1017.1
20260831071015 82 203 3.0 7.0 0.00 0.00 0.00 73 1017.0
20260831070515 82 203 4.0 8.0 0.00 0.00 0.00 72 1017.1
20260831070036 82 180 2.0 8.0 0.00 0.00 0.00 72 1016.9
20260831065515 82 180 2.0 7.0 0.00 0.00 0.00 71 1017.1
20260831065016 82 203 2.0 5.0 0.00 0.00 0.00 71 1017.0
20260831064515 83 203 2.0 7.0 0.00 0.00 0.00 70 1017.1
20260831064015 83 203 3.0 7.0 0.00 0.00 0.00 70 1017.2
20260831063515 83 203 2.0 6.0 0.00 0.00 0.00 69 1017.2
20260831063036 83 203 3.0 9.0 0.00 0.00 0.00 69 1017.3
20260831062515 83 203 3.0 8.0 0.00 0.00 0.00 68 1017.2
20260831062015 84 203 4.0 12.0 0.00 0.00 0.00 68 1017.2
20260831061515 84 180 4.0 10.0 0.00 0.00 0.00 68 1017.2
20260831061015 84 180 4.0 8.0 0.00 0.00 0.00 67 1017.1
20260831060516 84 203 4.0 9.0 0.00 0.00 0.00 67 1017.1
20260831060015 84 203 3.0 8.0 0.00 0.00 0.00 67 1017.0
20260831055516 84 180 3.0 10.0 0.00 0.00 0.00 66 1017.0
20260831055015 84 158 2.0 6.0 0.00 0.00 0.00 66 1016.8
20260831054516 84 180 2.0 4.0 0.00 0.00 0.00 65 1016.9
20260831054015 84 180 2.0 7.0 0.00 0.00 0.00 65 1017.0
20260831053515 85 158 2.0 6.0 0.00 0.00 0.00 64 1016.9
20260831053015 85 158 2.0 9.0 0.00 0.00 0.00 64 1017.0
20260831052515 85 158 3.0 8.0 0.00 0.00 0.00 63 1017.0
20260831052015 85 158 4.0 10.0 0.00 0.00 0.00 63 1016.9
20260831051515 85 180 3.0 9.0 0.00 0.00 0.00 62 1016.8
20260831051015 85 180 3.0 9.0 0.00 0.00 0.00 62 1016.8
20260831050515 85 180 3.0 9.0 0.00 0.00 0.00 62 1016.7
20260831050015 85 180 3.0 9.0 0.00 0.00 0.00 62 1016.8
20260831045536 86 203 4.0 11.0 0.00 0.00 0.00 61 1016.8
20260831045036 86 203 4.0 11.0 0.00 0.00 0.00 61 1016.8
20260831044636 86 203 4.0 11.0 0.00 0.00 0.00 60 1016.7
20260831044056 86 180 3.0 8.0 0.00 0.00 0.00 60 1016.6
20260831043516 86 180 3.0 7.0 0.00 0.00 0.00 60 1016.6
20260831043016 87 158 5.0 13.0 0.00 0.00 0.00 59 1016.7
20260831042516 87 180 7.0 14.0 0.00 0.00 0.00 59 1016.7
20260831042036 87 158 5.0 12.0 0.00 0.00 0.00 59 1016.5
20260831041516 87 180 6.0 14.0 0.00 0.00 0.00 59 1016.7
20260831041016 87 158 4.0 10.0 0.00 0.00 0.00 59 1016.7
20260831040536 87 158 4.0 11.0 0.00 0.00 0.00 59 1016.6
20260831040056 87 158 5.0 12.0 0.00 0.00 0.00 59 1016.6
20260831035516 87 180 4.0 11.0 0.00 0.00 0.00 59 1016.7
20260831035017 87 158 4.0 12.0 0.00 0.00 0.00 58 1016.4
20260831034516 87 158 5.0 13.0 0.00 0.00 0.00 58 1016.3
20260831034016 88 158 6.0 12.0 0.00 0.00 0.00 58 1016.6
20260831033516 88 158 4.0 13.0 0.00 0.00 0.00 58 1016.2
20260831033016 88 158 4.0 10.0 0.00 0.00 0.00 58 1016.1
20260831032516 88 158 5.0 17.0 0.00 0.00 0.00 58 1016.1
20260831032015 88 135 4.0 12.0 0.00 0.00 0.00 58 1016.1
20260831031536 88 135 6.0 13.0 0.00 0.00 0.00 58 1016.0
20260831031015 88 158 6.0 13.0 0.00 0.00 0.00 58 1015.9
20260831030516 88 135 6.0 15.0 0.00 0.00 0.00 58 1015.8
20260831030038 88 158 5.0 11.0 0.00 0.00 0.00 58 1015.7
20260831025516 88 135 5.0 12.0 0.00 0.00 0.00 58 1015.6
20260831025015 89 158 5.0 12.0 0.00 0.00 0.00 58 1015.5
20260831024516 89 158 5.0 12.0 0.00 0.00 0.00 57 1015.4
20260831024016 89 158 6.0 19.0 0.00 0.00 0.00 56 1015.5
20260831023515 89 158 7.0 14.0 0.00 0.00 0.00 56 1015.5
20260831023016 90 135 5.0 14.0 0.00 0.00 0.00 55 1015.3
20260831022516 90 158 7.0 15.0 0.00 0.00 0.00 54 1015.3
20260831022016 90 135 6.0 14.0 0.00 0.00 0.00 53 1015.1
20260831021536 90 135 7.0 17.0 0.00 0.00 0.00 52 1014.9
20260831021016 90 135 7.0 16.0 0.00 0.00 0.00 50 1014.9
20260831020515 90 135 4.0 15.0 0.00 0.00 0.00 47 1014.7
20260831020016 90 135 3.0 9.0 0.00 0.00 0.00 46 1014.7
20260831015515 90 135 3.0 6.0 0.00 0.00 0.00 46 1014.6
20260831015016 90 135 2.0 5.0 0.00 0.00 0.00 46 1014.5
20260831014516 90 135 2.0 3.0 0.00 0.00 0.00 46 1014.4
20260831014015 91 135 2.0 3.0 0.00 0.00 0.00 45 1014.3
20260831013515 91 135 2.0 6.0 0.00 0.00 0.00 45 1014.2
20260831013016 91 113 2.0 5.0 0.00 0.00 0.00 45 1014.2
20260831012515 91 135 2.0 5.0 0.00 0.00 0.00 45 1014.2
20260831012016 91 135 3.0 5.0 0.00 0.00 0.00 45 1014.1
20260831011515 92 135 3.0 5.0 0.00 0.00 0.00 45 1014.2
20260831011015 92 135 3.0 7.0 0.00 0.00 0.00 45 1014.1
20260831010515 92 135 3.0 9.0 0.00 0.00 0.00 44 1014.2
20260831010015 92 158 3.0 7.0 0.00 0.00 0.00 45 1014.3
20260831005535 93 135 4.0 8.0 0.00 0.00 0.00 44 1014.2
20260831005015 93 135 3.0 8.0 0.00 0.00 0.00 44 1014.3
20260831004515 93 135 2.0 7.0 0.00 0.00 0.00 43 1014.2
20260831004015 93 158 2.0 7.0 0.00 0.00 0.00 43 1014.1
20260831003515 93 158 3.0 7.0 0.00 0.00 0.00 42 1014.2
20260831003015 93 135 4.0 8.0 0.00 0.00 0.00 42 1014.1
20260831002515 94 135 2.0 7.0 0.00 0.00 0.00 43 1014.2
20260831002036 94 113 3.0 6.0 0.00 0.00 0.00 43 1014.2
20260831001516 94 135 4.0 9.0 0.00 0.00 0.00 42 1014.2
20260831001015 93 135 2.0 4.0 0.00 0.00 0.00 43 1014.2
20260831000515 94 135 1.0 5.0 0.00 0.00 0.00 43 1014.2
20260831000036 94 158 2.0 6.0 0.00 0.00 0.00 42 1014.3
20260830235517 95 113 2.0 8.0 0.00 0.00 0.00 42 1014.3
20260830235016 95 90 3.0 9.0 0.00 0.00 0.00 41 1014.2
20260830234515 95 135 1.0 3.0 0.00 0.00 0.00 42 1014.2
20260830234015 95 135 3.0 8.0 0.00 0.00 0.00 42 1014.3
20260830233515 95 135 3.0 9.0 0.00 0.00 0.00 42 1014.2
20260830233015 96 90 3.0 6.0 0.00 0.00 0.00 41 1014.1
20260830232516 96 135 3.0 9.0 0.00 0.00 0.00 41 1014.3
20260830232015 96 135 3.0 8.0 0.00 0.00 0.00 42 1014.3
20260830231515 96 135 4.0 11.0 0.00 0.00 0.00 42 1014.4
20260830231016 96 180 4.0 8.0 0.00 0.00 0.00 42 1014.4
20260830230515 96 135 4.0 10.0 0.00 0.00 0.00 42 1014.3
20260830230015 95 158 2.0 8.0 0.00 0.00 0.00 43 1014.3
20260830225515 95 135 2.0 7.0 0.00 0.00 0.00 43 1014.3
20260830225015 95 135 2.0 7.0 0.00 0.00 0.00 43 1014.3
20260830224535 95 135 2.0 8.0 0.00 0.00 0.00 42 1014.4
20260830224035 96 135 4.0 10.0 0.00 0.00 0.00 42 1014.3
20260830223515 97 158 5.0 10.0 0.00 0.00 0.00 41 1014.4
20260830223015 97 180 3.0 8.0 0.00 0.00 0.00 41 1014.5
20260830222515 97 180 3.0 8.0 0.00 0.00 0.00 41 1014.5
20260830222015 98 113 3.0 13.0 0.00 0.00 0.00 40 1014.4
20260830221515 97 135 3.0 7.0 0.00 0.00 0.00 40 1014.5
20260830221015 97 158 1.0 4.0 0.00 0.00 0.00 44 1014.6
20260830220516 96 135 3.0 8.0 0.00 0.00 0.00 40 1014.6
20260830220015 97 158 3.0 10.0 0.00 0.00 0.00 40 1014.7
20260830215515 97 90 4.0 10.0 0.00 0.00 0.00 40 1014.7
20260830215015 97 135 4.0 12.0 0.00 0.00 0.00 40 1014.8
20260830214535 96 135 5.0 11.0 0.00 0.00 0.00 42 1014.8
20260830214035 98 90 5.0 11.0 0.00 0.00 0.00 40 1014.8
20260830213515 98 135 4.0 10.0 0.00 0.00 0.00 41 1015.0
20260830213015 98 135 5.0 10.0 0.00 0.00 0.00 40 1014.9
20260830212515 99 158 7.0 15.0 0.00 0.00 0.00 41 1015.1
20260830212015 98 90 3.0 10.0 0.00 0.00 0.00 41 1015.1
20260830211515 98 135 3.0 10.0 0.00 0.00 0.00 42 1015.2
20260830211015 97 203 3.0 11.0 0.00 0.00 0.00 41 1015.4
20260830210515 97 158 5.0 12.0 0.00 0.00 0.00 42 1015.4
20260830210015 96 203 5.0 12.0 0.00 0.00 0.00 41 1015.4
20260830205515 97 203 3.0 10.0 0.00 0.00 0.00 43 1015.6
20260830205016 97 158 6.0 13.0 0.00 0.00 0.00 40 1015.6
20260830204515 98 135 4.0 9.0 0.00 0.00 0.00 42 1015.7
20260830204035 97 158 2.0 8.0 0.00 0.00 0.00 45 1015.7
20260830203515 98 135 4.0 12.0 0.00 0.00 0.00 41 1015.8
20260830203015 99 113 3.0 8.0 0.00 0.00 0.00 40 1015.9
20260830202515 99 158 3.0 6.0 0.00 0.00 0.00 40 1015.9
20260830202015 99 135 3.0 11.0 0.00 0.00 0.00 40 1016.1
20260830201535 99 158 6.0 14.0 0.00 0.00 0.00 40 1016.0
20260830201035 97 113 3.0 9.0 0.00 0.00 0.00 44 1016.1
20260830200515 97 113 4.0 11.0 0.00 0.00 0.00 44 1016.3
20260830200015 97 225 4.0 12.0 0.00 0.00 0.00 45 1016.1
20260830195515 97 158 3.0 7.0 0.00 0.00 0.00 45 1016.2
20260830195035 98 158 5.0 12.0 0.00 0.00 0.00 43 1016.4
20260830194535 97 158 6.0 15.0 0.00 0.00 0.00 44 1016.3
20260830194015 96 248 3.0 10.0 0.00 0.00 0.00 46 1016.5
20260830193515 98 158 5.0 14.0 0.00 0.00 0.00 44 1016.6
20260830193015 97 158 4.0 11.0 0.00 0.00 0.00 43 1016.6
20260830192517 97 203 5.0 11.0 0.00 0.00 0.00 46 1016.8
20260830192017 98 135 5.0 11.0 0.00 0.00 0.00 45 1017.0
20260830191517 98 180 4.0 10.0 0.00 0.00 0.00 45 1017.1
20260830191017 97 158 5.0 16.0 0.00 0.00 0.00 46 1017.1
20260830190517 97 158 4.0 14.0 0.00 0.00 0.00 45 1017.1
20260830190017 95 225 4.0 9.0 0.00 0.00 0.00 46 1017.0
20260830185517 96 248 5.0 10.0 0.00 0.00 0.00 46 1017.2
20260830185017 96 225 4.0 8.0 0.00 0.00 0.00 47 1017.3
20260830184537 97 158 3.0 11.0 0.00 0.00 0.00 45 1017.4
20260830184017 95 203 3.0 9.0 0.00 0.00 0.00 47 1017.4
20260830183517 95 180 4.0 10.0 0.00 0.00 0.00 46 1017.5
20260830183017 95 203 5.0 11.0 0.00 0.00 0.00 49 1017.6
20260830182517 95 180 3.0 8.0 0.00 0.00 0.00 49 1017.5
20260830182017 95 203 4.0 13.0 0.00 0.00 0.00 50 1017.6
20260830181537 94 180 4.0 10.0 0.00 0.00 0.00 53 1017.9
20260830181017 94 158 4.0 9.0 0.00 0.00 0.00 52 1017.9
20260830180517 94 135 4.0 11.0 0.00 0.00 0.00 52 1018.0
20260830180017 94 135 3.0 9.0 0.00 0.00 0.00 51 1018.1
20260830175517 95 158 4.0 9.0 0.00 0.00 0.00 52 1018.2
20260830175017 95 135 5.0 10.0 0.00 0.00 0.00 50 1018.3
20260830174538 95 158 3.0 8.0 0.00 0.00 0.00 49 1018.4
20260830174016 95 158 4.0 9.0 0.00 0.00 0.00 51 1018.5
20260830173516 94 158 5.0 10.0 0.00 0.00 0.00 51 1018.5
20260830173037 94 135 6.0 12.0 0.00 0.00 0.00 50 1018.8
20260830172517 93 135 4.0 11.0 0.00 0.00 0.00 53 1018.9
20260830172016 92 203 3.0 8.0 0.00 0.00 0.00 55 1018.8
20260830171517 93 90 4.0 10.0 0.00 0.00 0.00 54 1018.9
20260830171017 93 203 4.0 10.0 0.00 0.00 0.00 55 1019.0
20260830170517 93 180 4.0 13.0 0.00 0.00 0.00 55 1018.9
20260830170017 92 203 3.0 10.0 0.00 0.00 0.00 54 1019.0
20260830165517 92 158 4.0 10.0 0.00 0.00 0.00 56 1019.1
20260830165016 92 203 5.0 10.0 0.00 0.00 0.00 56 1019.1
20260830164516 92 158 4.0 7.0 0.00 0.00 0.00 56 1019.1
20260830164017 91 225 3.0 9.0 0.00 0.00 0.00 58 1019.3
20260830163516 91 203 4.0 9.0 0.00 0.00 0.00 56 1019.2
20260830163037 91 203 3.0 9.0 0.00 0.00 0.00 57 1019.3
20260830162537 91 225 4.0 10.0 0.00 0.00 0.00 58 1019.3
20260830162017 91 203 4.0 9.0 0.00 0.00 0.00 59 1019.3
20260830161517 90 180 4.0 11.0 0.00 0.00 0.00 58 1019.3
20260830161016 90 180 4.0 10.0 0.00 0.00 0.00 58 1019.2
20260830160516 90 225 4.0 10.0 0.00 0.00 0.00 58 1019.3
20260830160016 90 158 4.0 10.0 0.00 0.00 0.00 60 1019.2
20260830155517 89 203 3.0 8.0 0.00 0.00 0.00 61 1019.2
20260830155017 88 203 4.0 8.0 0.00 0.00 0.00 61 1019.1
20260830154517 88 203 4.0 10.0 0.00 0.00 0.00 61 1019.0
20260830154016 88 180 4.0 11.0 0.00 0.00 0.00 62 1019.2
20260830153516 87 225 4.0 8.0 0.00 0.00 0.00 64 1019.1
20260830153016 87 203 4.0 10.0 0.00 0.00 0.00 64 1019.0
20260830152537 87 225 5.0 9.0 0.00 0.00 0.00 65 1018.9
20260830152017 87 248 5.0 11.0 0.00 0.00 0.00 65 1018.8
20260830151516 86 225 5.0 10.0 0.00 0.00 0.00 65 1018.8
20260830151016 86 203 4.0 9.0 0.00 0.00 0.00 67 1018.8
20260830150516 86 203 5.0 10.0 0.00 0.00 0.00 68 1019.0
20260830150016 85 203 3.0 8.0 0.00 0.00 0.00 71 1018.9
20260830145517 85 180 4.0 11.0 0.00 0.00 0.00 70 1018.9
20260830145016 84 203 5.0 12.0 0.00 0.00 0.00 71 1018.9
20260830144517 84 203 5.0 11.0 0.00 0.00 0.00 72 1018.9
20260830144017 83 248 3.0 6.0 0.00 0.00 0.00 73 1018.9
20260830143536 83 225 4.0 8.0 0.00 0.00 0.00 74 1018.9
20260830143016 83 225 3.0 9.0 0.00 0.00 0.00 75 1018.8
20260830142516 82 203 4.0 10.0 0.00 0.00 0.00 75 1018.7
20260830142016 82 203 3.0 9.0 0.00 0.00 0.00 76 1018.9
20260830141518 81 225 3.0 6.0 0.00 0.00 0.00 78 1018.8
20260830141016 81 225 4.0 9.0 0.00 0.00 0.00 78 1018.6
20260830140516 81 225 4.0 10.0 0.00 0.00 0.00 79 1018.5
20260830140016 80 225 2.0 9.0 0.00 0.00 0.00 80 1018.5
20260830135516 80 180 4.0 8.0 0.00 0.00 0.00 81 1018.6
20260830135016 79 225 4.0 10.0 0.00 0.00 0.00 81 1018.5
20260830134516 79 225 3.0 10.0 0.00 0.00 0.00 82 1018.5
20260830134016 79 225 2.0 9.0 0.00 0.00 0.00 82 1018.4
20260830133516 78 225 4.0 12.0 0.00 0.00 0.00 83 1018.3
20260830133036 78 203 3.0 6.0 0.00 0.00 0.00 83 1018.2
20260830132516 78 180 2.0 7.0 0.00 0.00 0.00 84 1018.1
20260830132016 77 248 3.0 6.0 0.00 0.00 0.00 84 1018.1
20260830131536 77 225 2.0 7.0 0.00 0.00 0.00 84 1018.1
20260830131016 77 203 2.0 8.0 0.00 0.00 0.00 85 1017.9
20260830130516 76 225 1.0 5.0 0.00 0.00 0.00 86 1018.0
20260830130056 76 225 2.0 6.0 0.00 0.00 0.00 86 1018.0
20260830125516 76 225 1.0 6.0 0.00 0.00 0.00 86 1018.1
20260830125016 76 225 1.0 5.0 0.00 0.00 0.00 85 1018.1
20260830124536 76 225 1.0 4.0 0.00 0.00 0.00 86 1017.9
20260830124016 76 203 2.0 8.0 0.00 0.00 0.00 86 1017.8
20260830123516 76 203 2.0 7.0 0.00 0.00 0.00 86 1017.9
20260830123016 75 203 2.0 6.0 0.00 0.00 0.00 85 1017.9
20260830122516 75 203 2.0 7.0 0.00 0.00 0.00 85 1017.9
20260830122016 75 203 1.0 4.0 0.00 0.00 0.00 85 1017.8
20260830121516 75 203 1.0 4.0 0.00 0.00 0.00 84 1017.8
20260830121016 76 203 1.0 4.0 0.00 0.00 0.00 84 1017.7
20260830120536 76 203 1.0 3.0 0.00 0.00 0.00 84 1017.7
20260830120016 76 203 1.0 4.0 0.00 0.00 0.00 83 1017.5
20260830115516 76 203 1.0 4.0 0.00 0.00 0.00 83 1017.5
20260830115016 76 0.0 2.0 0.00 0.00 0.00 83 1017.5
20260830114516 76 203 1.0 4.0 0.00 0.00 0.00 83 1017.5
20260830114016 76 203 1.0 2.0 0.00 0.00 0.00 82 1017.4
20260830113517 76 203 1.0 3.0 0.00 0.00 0.00 81 1017.3
20260830113016 76 203 1.0 4.0 0.00 0.00 0.00 81 1017.3
20260830112516 76 0.0 3.0 0.00 0.00 0.00 81 1017.4
20260830112016 77 203 1.0 3.0 0.00 0.00 0.00 80 1017.3
20260830111536 77 203 1.0 3.0 0.00 0.00 0.00 80 1017.2
20260830111016 77 203 1.0 3.0 0.00 0.00 0.00 80 1017.1
20260830110516 77 203 1.0 3.0 0.00 0.00 0.00 80 1017.1
20260830110036 77 203 1.0 4.0 0.00 0.00 0.00 79 1017.2
20260830105516 77 203 1.0 5.0 0.00 0.00 0.00 79 1017.2
20260830105036 77 203 1.0 4.0 0.00 0.00 0.00 78 1017.1